Claresholm, Alberta

4:20 AM MST on December 15, 2017 (GMT -0700)
Claresholm

Weather History for CWDK - October, 2012

Change the Weather History Date:

Wednesday, October 17, 2012

  Actual Average Record
Temperature  
Mean Temperature 38 °F -  
Max Temperature 52 °F - - ()
Min Temperature 24 °F - - ()
Degree Days  
Heating Degree Days 27    
Moisture  
Dew Point 17 °F    
Average Humidity 44    
Maximum Humidity 79    
Minimum Humidity 12    
Precipitation  
Precipitation 0.00 in - - ()
Sea Level Pressure  
Sea Level Pressure 30.00 in    
Wind  
Wind Speed 9 mph ()    
Max Wind Speed 22 mph    
Max Gust Speed 29 mph    
T = Trace of Precipitation, MM = Missing Value Source: Averaged Metar Reports

Daily Weather History Graph

Daily Weather History Graph

Search for Another Location

Airport or City:

Trip Planner

Search our weather history database for the weather conditions in past years. The results will help you decide how hot, cold, wet, or windy it might be!

Date:

Astronomy

Oct. 17, 2012 Rise Set
Actual Time 8:00 AM MDT 6:38 PM MDT
Civil Twilight 7:27 AM MDT 7:10 PM MDT
Nautical Twilight 6:50 AM MDT 7:48 PM MDT
Astronomical Twilight 6:12 AM MDT 8:25 PM MDT
Moon 10:58 AM MDT (10/17) 7:57 PM MDT (10/17)
Length of Visible Light 11h 42m
Length of Day
10h 37m
Waxing Crescent, 7% of the Moon is Illuminated
Oct 17
Waxing Crescent
Oct 21
First Quarter
Oct 29
Full
Nov 6
Last Quarter
Nov 13
New

Hourly Weather History & Observations

Time (MDT) Temp. Windchill Dew Point Humidity Pressure Visibility Wind Dir Wind Speed Gust Speed Precip Events Conditions
12:00 AM 35 °F - 22 °F 48% 29.75 in - West 8.1 mph - -  
12:00 AM 34.9 °F 28.3 °F 22.5 °F 61% 29.75 in - West 8.1 mph - N/A   Unknown
1:00 AM 39.0 °F 33.4 °F 21.2 °F 49% 29.76 in - WSW 8.1 mph - N/A   Unknown
2:00 AM 39.0 °F 32.3 °F 21.4 °F 49% 29.78 in - WNW 10.4 mph - N/A   Unknown
3:00 AM 31.1 °F 23.7 °F 19.2 °F 61% 29.85 in - WNW 8.1 mph - N/A   Unknown
4:00 AM 31.3 °F 25.6 °F 19.2 °F 61% 29.87 in - West 5.8 mph - N/A   Unknown
5:00 AM 24.8 °F 16.1 °F 19.0 °F 79% 29.90 in - West 8.1 mph - N/A   Unknown
6:00 AM 29 °F - 21 °F 63% 29.91 in - NW 10.4 mph - -  
6:00 AM 29.1 °F 20.0 °F 21.4 °F 73% 29.91 in - NW 10.4 mph - N/A   Unknown
7:00 AM 28.4 °F 19.7 °F 19.9 °F 71% 29.93 in - WSW 9.2 mph - N/A   Unknown
8:00 AM 31.1 °F 23.1 °F 21.4 °F 67% 29.93 in - WNW 9.2 mph - N/A   Unknown
9:00 AM 36.9 °F 32.2 °F 20.8 °F 52% 29.96 in - NW 5.8 mph - N/A   Unknown
10:00 AM 45.7 °F 38.0 °F 17.4 °F 32% 29.99 in - WNW 19.6 mph - N/A   Unknown
11:00 AM 47.8 °F - 14.5 °F 26% 29.99 in - NW 21.9 mph 28.8 mph N/A   Unknown
12:00 PM 48 °F - 12 °F 12% 30.01 in - WNW 19.6 mph - -  
12:00 PM 47.8 °F - 12.0 °F 24% 30.01 in - WNW 19.6 mph 27.6 mph N/A   Unknown
1:00 PM 49.6 °F - 8.8 °F 19% 30.02 in - WNW 16.1 mph 23.0 mph N/A   Unknown
2:00 PM 50.2 °F - 12.2 °F 22% 30.05 in - West 15.0 mph 20.7 mph N/A   Unknown
3:00 PM 51.1 °F - 10.6 °F 20% 30.05 in - WNW 13.8 mph - N/A   Unknown
4:00 PM 51.3 °F - 12.6 °F 21% 30.09 in - NW 16.1 mph 23.0 mph N/A   Unknown
5:00 PM 49.8 °F - 11.3 °F 21% 30.11 in - WNW 13.8 mph - N/A   Unknown
6:00 PM 47 °F - 13 °F 13% 30.15 in - WNW 11.5 mph - -  
6:00 PM 46.6 °F - 12.7 °F 26% 30.15 in - WNW 11.5 mph - N/A   Unknown
7:00 PM 34.2 °F 27.5 °F 17.2 °F 50% 30.19 in - WNW 8.1 mph - N/A   Unknown
8:00 PM 33.3 °F 26.4 °F 16.3 °F 50% 30.20 in - NW 8.1 mph - N/A   Unknown
9:00 PM 34.0 °F 29.8 °F 16.3 °F 49% 30.19 in - NW 4.6 mph - N/A   Unknown
10:00 PM 34.2 °F 28.2 °F 16.7 °F 49% 30.21 in - NE 6.9 mph - N/A   Unknown
11:00 PM 31.6 °F 27.0 °F 16.5 °F 54% 30.23 in - NE 4.6 mph - N/A   Unknown